GW0882 Weather Reports


Display with metric or nautical units.
time (UTC)temp
F
wind
direction
speed
MPH
gust
MPH
rain 1hr
in
rain 24hr
in
rain mn
in
humidity
%
barometer
mb
20260507234536 44 0 0.0 1.0 0.00 0.00 0.00 85 1016.1
20260507233053 44 0 0.0 1.0 0.00 0.00 0.00 85 1016.2
20260507231538 45 0 0.0 1.0 0.00 0.00 0.00 84 1016.3
20260507230043 45 0 0.0 3.0 0.00 0.00 0.00 84 1016.3
20260507224543 46 0 0.0 1.0 0.00 0.00 0.00 84 1016.3
20260507223036 46 83 0.0 2.0 0.00 0.00 0.00 84 1016.5
20260507221537 46 0 0.0 2.0 0.00 0.00 0.00 83 1016.7
20260507220035 47 0 0.0 2.0 0.00 0.00 0.00 82 1016.6
20260507214542 48 0 0.0 2.0 0.00 0.00 0.00 82 1016.7
20260507213041 48 0 0.0 3.0 0.00 0.00 0.00 82 1016.7
20260507211536 49 86 1.0 4.0 0.00 0.00 0.00 83 1016.6
20260507210048 49 0 1.0 6.0 0.00 0.00 0.00 82 1016.5
20260507204538 49 62 1.0 4.0 0.00 0.00 0.00 80 1016.4
20260507203044 50 71 0.0 3.0 0.00 0.00 0.00 79 1016.3
20260507201539 50 0 0.0 3.0 0.00 0.00 0.00 78 1016.3
20260507200036 51 0 0.0 2.0 0.00 0.00 0.00 77 1016.1
20260507194611 52 68 0.0 3.0 0.00 0.00 0.00 76 1016.0
20260507193043 52 62 1.0 4.0 0.00 0.00 0.00 75 1015.8
20260507191539 53 59 0.0 4.0 0.00 0.00 0.00 74 1015.8
20260507190042 53 76 0.0 4.0 0.00 0.00 0.00 73 1015.8
20260507184538 53 65 1.0 4.0 0.00 0.00 0.00 73 1015.7
20260507183043 54 88 2.0 8.0 0.00 0.00 0.00 72 1015.8
20260507181546 54 52 1.0 7.0 0.00 0.00 0.00 70 1015.6
20260507180040 55 48 1.0 8.0 0.00 0.00 0.00 69 1015.6
20260507174546 55 39 2.0 7.0 0.00 0.00 0.00 67 1015.5
20260507173053 55 0 1.0 4.0 0.00 0.00 0.00 66 1015.5
20260507171548 55 49 0.0 6.0 0.00 0.00 0.00 66 1015.5
20260507170043 55 0 0.0 4.0 0.00 0.00 0.00 67 1015.5
20260507164548 55 0 1.0 9.0 0.00 0.00 0.00 66 1015.5
20260507163040 56 170 3.0 7.0 0.00 0.00 0.00 65 1015.6
20260507161555 57 128 2.0 10.0 0.00 0.00 0.00 65 1015.5
20260507160040 56 71 1.0 8.0 0.00 0.00 0.00 67 1015.6
20260507154540 55 44 1.0 7.0 0.00 0.00 0.00 68 1015.7
20260507153041 54 69 0.0 4.0 0.00 0.00 0.00 68 1015.8
20260507151536 54 78 2.0 7.0 0.00 0.00 0.00 68 1015.7
20260507150036 54 58 2.0 7.0 0.00 0.00 0.00 70 1015.7
20260507144544 53 0 2.0 8.0 0.00 0.00 0.00 69 1015.7
20260507143043 54 82 1.0 6.0 0.00 0.00 0.00 69 1015.8
20260507141545 54 116 2.0 10.0 0.00 0.00 0.00 68 1015.8
20260507140039 54 63 2.0 8.0 0.00 0.00 0.00 67 1015.9
20260507134535 54 74 2.0 7.0 0.00 0.00 0.00 68 1016.0
20260507133035 54 74 1.0 5.0 0.00 0.00 0.00 65 1016.0
20260507131541 54 112 2.0 4.0 0.00 0.00 0.00 65 1016.0
20260507130039 55 89 1.0 5.0 0.00 0.00 0.00 65 1016.1
20260507124535 54 76 1.0 5.0 0.00 0.00 0.00 66 1016.1
20260507123040 53 92 2.0 6.0 0.00 0.00 0.00 65 1016.1
20260507121543 53 75 0.0 4.0 0.00 0.00 0.00 64 1016.3
20260507120044 53 70 2.0 4.0 0.00 0.00 0.00 68 1016.3
20260507114539 53 60 1.0 4.0 0.00 0.00 0.00 66 1016.2
20260507113042 53 65 2.0 6.0 0.00 0.00 0.00 67 1016.1
20260507111536 53 0 0.0 4.0 0.00 0.00 0.00 65 1016.2
20260507110042 53 0 0.0 4.0 0.00 0.00 0.00 68 1016.2
20260507104540 54 52 1.0 4.0 0.00 0.00 0.00 67 1016.3
20260507103038 53 0 0.0 2.0 0.00 0.00 0.00 68 1016.4
20260507101537 53 46 1.0 5.0 0.00 0.00 0.00 66 1016.4
20260507100039 53 0 0.0 2.0 0.00 0.00 0.00 71 1016.5
20260507094535 52 64 0.0 4.0 0.00 0.00 0.00 73 1016.4
20260507093041 52 73 1.0 3.0 0.00 0.00 0.00 71 1016.3
20260507091538 52 134 1.0 6.0 0.00 0.00 0.00 70 1016.3
20260507090038 53 65 0.0 4.0 0.00 0.00 0.00 72 1016.3
20260507084535 52 168 1.0 5.0 0.00 0.00 0.00 71 1016.3
20260507083036 52 0 1.0 7.0 0.00 0.00 0.00 72 1016.2
20260507081543 52 40 2.0 11.0 0.00 0.00 0.00 73 1016.2
20260507080040 51 96 1.0 5.0 0.00 0.00 0.00 77 1016.2
20260507074538 50 0 0.0 5.0 0.00 0.00 0.00 80 1016.1
20260507073035 50 63 1.0 4.0 0.00 0.00 0.00 83 1016.1
20260507071538 49 0 1.0 4.0 0.00 0.00 0.00 84 1016.0
20260507070043 48 82 2.0 6.0 0.00 0.00 0.00 84 1015.9
20260507064548 47 57 1.0 3.0 0.00 0.00 0.00 87 1015.9
20260507063047 47 77 1.0 3.0 0.00 0.00 0.00 88 1015.9
20260507061540 46 0 0.0 2.0 0.00 0.00 0.00 88 1015.9
20260507060044 46 0 0.0 1.0 0.00 0.00 0.00 88 1015.8
20260507054536 45 0 0.0 0.0 0.00 0.00 0.00 87 1015.6
20260507053037 45 0 0.0 1.0 0.00 0.00 0.00 86 1015.5
20260507051542 45 0 0.0 0.0 0.00 0.00 0.00 85 1015.6
20260507050041 46 0 0.0 0.0 0.00 0.00 0.00 85 1015.4
20260507044537 46 0 0.0 0.0 0.00 0.00 0.00 85 1015.4
20260507043038 46 0 0.0 0.0 0.00 0.00 0.00 85 1015.3
20260507041543 46 0 0.0 0.0 0.00 0.00 0.00 84 1015.3
20260507040040 46 0 0.0 0.0 0.00 0.00 0.00 84 1015.3
20260507034546 46 0 0.0 0.0 0.00 0.00 0.00 84 1015.3
20260507033049 46 0 0.0 0.0 0.00 0.00 0.00 84 1015.1
20260507031535 46 0 0.0 0.0 0.00 0.00 0.00 84 1015.1
20260507030035 46 0 0.0 0.0 0.00 0.00 0.00 83 1015.1
20260507024547 46 0 0.0 0.0 0.00 0.00 0.00 83 1015.0
20260507023036 46 0 0.0 0.0 0.00 0.00 0.00 83 1015.0
20260507021535 46 0 0.0 0.0 0.00 0.00 0.00 82 1014.9
20260507020037 46 0 0.0 0.0 0.00 0.00 0.00 81 1014.7
20260507014538 47 0 0.0 0.0 0.00 0.00 0.00 81 1014.7
20260507013039 47 0 0.0 0.0 0.00 0.00 0.00 80 1014.7
20260507011538 47 0 0.0 0.0 0.00 0.00 0.00 79 1014.7
20260507010040 48 0 0.0 0.0 0.00 0.00 0.00 78 1014.7
20260507004539 48 0 0.0 0.0 0.00 0.00 0.00 77 1014.7
20260507003039 48 0 0.0 1.0 0.00 0.00 0.00 77 1014.8
20260507001600 49 0 0.0 1.0 0.00 0.00 0.00 77 1014.8
20260507000037 49 0 0.0 0.0 0.00 0.00 0.00 77 1014.9